Cloud_Cover
100 100 100 100 100 100 100 100 100 94 46 19 8 61 42 27 5 2 0 0 0 0 0 0 0 0 0 0 0 0 0 0 0 0 0 0 0 0 0 0 9 89 100 100
67 98 100 100 100 100 100 100 100 100 56 55 62 92 5 4 0 0 0 0 0 0 0 0 0 0 0 0 0 0 0 0 0 0 0 0 0 0 0 10 4 92 18 37
100 78 66 64 60 35 29 28 8 14 5 5 6 5 2 0 0 0 0 0 0 0 0 0 0 0 0 0 0 0 0 0 0 0 0 0 0 0 0 11 39 30 63 87
24 20 5 5 5 5 1 0 0 0 0 0 0 0 0 0 0 0 0 0 0 0 0 0 0 0 0 0 0 0 0 0 0 0 0 0 24 18 17 96 100 14 95 99
5 5 5 5 5 5 3 0 0 2 0 3 0 9 0 0 0 0 0 0 0 0 0 0 0 0 0 0 0 0 0 0 0 0 0 0 16 6 22 85 100 100 85 37
5 4 1 0 0 0 0 0 0 0 3 27 0 0 0 0 0 0 0 0 0 0 0 0 0 0 0 0 0 0 0 0 0 0 0 0 3 27 36 92 54 84 83 48
0 0 0 0 0 0 0 43 23 15 31 0 1 0 0 0 0 0 0 0 0 0 0 0 0 0 0 0 0 0 0 0 0 0 0 0 0 15 51 87 87 100 99 46
2 6 0 0 0 0 0 1 0 0 0 0 0 0 0 0 0 0 0 0 0 0 0 0 0 0 0 0 0 0 0 0 0 0 0 2 5 2 26 35 44 98 100 82
0 0 0 0 0 0 0 0 0 1 0 0 0 0 0 0 0 0 0 0 0 0 0 0 0 0 0 0 0 0 0 0 0 0 0 1 0 4 1 8 1 11 7 6
0 0 0 1 0 0 0 0 0 1 0 0 0 0 0 2 0 0 0 0 0 0 0 0 0 0 0 1 0 0 5 6 5 4 0 0 5 0 5 5 5 1 4 4
0 0 0 0 0 0 4 0 0 0 0 0 0 0 0 30 0 0 0 0 0 2 1 0 0 0 1 3 11 5 6 34 48 5 5 4 5 5 37 73 10 5 52 0
0 0 0 0 0 0 0 0 0 0 0 0 0 0 0 0 0 0 2 0 1 4 1 0 0 3 76 99 100 99 8 20 13 47 1 3 42 56 99 65 100 9 82 5
0 0 0 1 0 0 0 0 0 0 1 0 0 0 0 0 5 18 17 44 52 62 94 100 100 100 52 100 100 100 100 100 100 100 100 100 100 100 100 100 69 60 28 5
0 0 0 0 0 0 1 0 0 0 0 0 0 1 0 0 5 4 0 1 5 7 12 30 58 97 100 100 100 100 100 99 100 100 100 100 100 100 100 100 100 100 100 77
0 0 0 0 0 0 0 2 4 25 85 50 23 24 1 2 4 2 4 5 3 4 17 1 0 0 1 5 90 100 99 64 7 16 5 75 92 58 100 84 70 65 100 100
0 0 0 0 1 1 0 0 0 0 0 3 50 100 100 100 94 82 7 5 22 5 5 5 5 5 5 5 5 5 24 13 98 100 99 100 100 100 100 100 100 100 100 100
5 5 5 4 2 6 1 0 4 5 8 59 7 2 7 62 100 100 97 13 9 6 5 5 5 43 5 5 9 95 71 70 90 76 6 70 100 100 100 100 100 100 100 100
8 34 64 54 5 5 5 5 5 5 5 46 20 22 64 100 100 75 11 6 13 13 33 51 55 79 17 6 6 42 11 5 5 5 7 42 98 81 90 97 94 87 90 100
7 18 74 68 11 99 71 46 22 5 5 5 6 71 100 100 100 100 90 57 100 74 88 71 56 64 75 37 5 5 5 5 5 5 24 30 100 100 95 99 76 60 98 100
98 79 48 5 5 5 96 67 48 15 5 24 66 100 40 10 77 100 100 100 95 97 24 5 98 100 26 5 5 19 6 36 96 84 9 6 17 56 54 81 100 77 99 100
100 99 74 79 43 26 34 99 74 11 2 1 28 52 98 93 42 65 100 100 98 80 95 100 100 100 100 96 100 83 29 48 100 100 100 70 40 100 98 100 100 100 100 100
100 99 93 78 74 75 100 99 100 66 10 5 5 5 5 5 14 16 35 82 100 100 100 100 96 100 100 100 99 99 100 100 100 98 100 100 100 100 100 100 100 100 100 100
100 100 100 100 100 100 100 100 40 23 5 5 5 5 9 5 4 4 5 6 98 100 100 100 100 100 100 100 99 94 99 100 100 100 100 100 100 100 100 100 100 91 100 100
100 100 100 100 100 100 89 64 18 50 100 100 100 41 5 5 5 5 83 20 25 86 100 100 100 100 100 100 100 100 100 99 100 100 100 100 100 100 95 53 73 90 100 100
99 100 100 90 100 71 100 100 100 100 100 100 61 11 5 5 5 5 30 61 25 49 100 100 100 100 100 83 25 29 30 12 42 14 34 90 88 99 98 100 100 100 99 100
100 100 95 8 28 59 70 86 83 22 44 99 88 41 5 5 34 92 100 100 100 96 91 89 79 6 5 5 6 87 100 92 5 30 87 96 98 83 89 42 11 72 94 100